Flag Weather past 2 weeks in São Tomé, Sao Tome and Principe

Now
77 °F

Passing clouds.


Feels Like: 78 °F
Forecast: N/A
Wind: 2 mph from Northwest

Location: S. Tome

Current Time: Nov 28, 2014 at 9:55:49 PM

Latest Report: Nov 28, 2014 at 8:00 PM


Visibility: N/A

Pressure: 29.89 "Hg

Humidity: 94%

Dew point: 75 °F

Location of São ToméLocation

Historic Weather in São Tomé — Graph

°F

São Tomé temperature yesterday

Maximum temperature yesterday: 86 °F (at 1:00 PM)
Minimum temperature yesterday: 73 °F (at 1:00 AM)
Average temperature yesterday: 79 °F

Past Weeks' High & Low Weather Summary

 TemperatureHumidityPressure
High86 °F (Nov 16, 11:00 AM)100% (Nov 17, 12:00 AM)29.95 "Hg (Nov 17, 12:00 AM)
Low72 °F (Nov 16, 4:00 AM)70% (Nov 18, 11:00 AM)29.77 "Hg (Nov 16, 3:00 PM)
Average79 °F87%29.88 "Hg
* Reported Nov 13 8:00 PM — Nov 28 8:00 PM, São Tomé, Weather by CustomWeather, © 2014

Note: Actual official high and low records may vary slightly from our data, if they occured in-between our weather recording intervals... More about our weather records

Advertising

São Tomé weather history for previous 24 hours

 ConditionsComfort  
Time TempWeatherWind HumidityBarometerVisibility
8:00 PM
Nov 28
77 °FPassing clouds.2 mph94%29.89 "HgN/A
7:00 PM81 °FPassing clouds.2 mph84%29.86 "HgN/A
6:00 PM81 °FPassing clouds.5 mph84%29.83 "HgN/A
5:00 PM81 °FScattered clouds.5 mph84%29.83 "HgN/A
4:00 PM82 °FPartly sunny.5 mph79%29.83 "HgN/A
3:00 PM82 °FPartly sunny.7 mph79%29.83 "HgN/A
2:00 PM84 °FBroken clouds.7 mph74%29.83 "HgN/A
1:00 PM84 °FBroken clouds.7 mph74%29.86 "HgN/A
12:00 PM84 °FPartly sunny.9 mph84%29.89 "HgN/A
11:00 AM82 °FScattered clouds.6 mph79%29.89 "HgN/A
10:00 AM82 °FScattered clouds.7 mph79%29.92 "HgN/A
9:00 AM81 °FScattered clouds.5 mph84%29.92 "HgN/A
6:00 AM73 °FPartly sunny.2 mph94%29.89 "HgN/A
4:00 AM73 °FPassing clouds.2 mph100%29.86 "HgN/A
10:00 PM
Nov 27
75 °FPassing clouds.5 mph94%29.89 "HgN/A
9:00 PM77 °FPassing clouds.3 mph89%29.89 "HgN/A
Weather by CustomWeather, © 2014

See weather overviewHow to use our weather pages